Starlink 11236

operational
NORAD ID: 61062 Int'l Des: 2024-164 Owner: SPXS Country: US Constellation: starlink
LEOCIRCULAR

About Starlink 11236

Description loading...

Live Position

Loading 3D Globe...

Upcoming Passes

Altitude History

Altitude vs Time

uPlot chart will show altitude changes over time

Two-Line Element Set

1 61062U 24164N 25305.49634209 .00000094 00000-0 56390-5 0 9995
2 61062 53.1600 223.2876 0001365 111.3266 248.7898 15.69707174 65281
Epoch: Nov 1, 2025 • Age: 18 hours

Current Status

Altitude 377.6 km
Velocity 7.68 km/s
Sub-Earth Point -49.32°S, 28.52°E
Launch Date Sep 13, 2024
Age 1.1 years
Type internet

Technical Details

Classification Payload
Mass 960.00 kg
Dry Mass 910.00 kg
Total Mass 960.00 kg
Length 0.30 m
Diameter 4.10 m
Span 29.00 m
Shape Box + pan
Manufacturer SPXS
Bus Type Starlink V2MD
Phase Status In Orbit
Owner/State SPXS/US

Large Constellations

Loading constellations...